Time,TemperatureF,DewpointF,PressureIn,WindDirection,WindDirectionDegrees,WindSpeedMPH,WindSpeedGustMPH,Humidity,HourlyPrecipIn,Conditions,Clouds,dailyrainin,SolarRadiationWatts/m^2,SoftwareType,DateUTC
2013-01-30 00:21:00,-1.0,-9.0,-100.00,WNW,301,5.0,13.0,67,0.00,,,0.00,0.000000,,2013-01-30 07:21:00,
2013-01-30 00:32:00,-1.0,-9.0,-100.00,WNW,301,5.0,13.0,67,0.00,,,0.00,0.000000,,2013-01-30 07:32:00,
2013-01-30 00:42:00,-1.0,-9.0,-100.00,WNW,301,5.0,13.0,67,0.00,,,0.00,0.000000,,2013-01-30 07:42:00,
2013-01-30 00:52:00,-1.0,-9.0,-100.00,WNW,301,5.0,13.0,67,0.00,,,0.00,0.000000,,2013-01-30 07:52:00,
2013-01-30 01:21:00,0.0,-11.0,-100.00,WNW,303,5.0,12.0,60,0.00,,,0.00,0.000000,,2013-01-30 08:21:00,
2013-01-30 01:32:00,0.0,-11.0,-100.00,WNW,303,5.0,12.0,60,0.00,,,0.00,0.000000,,2013-01-30 08:32:00,
2013-01-30 01:42:00,0.0,-11.0,-100.00,WNW,303,5.0,12.0,60,0.00,,,0.00,0.000000,,2013-01-30 08:42:00,
2013-01-30 01:52:00,0.0,-11.0,-100.00,WNW,303,5.0,12.0,60,0.00,,,0.00,0.000000,,2013-01-30 08:52:00,
2013-01-30 02:21:00,0.0,-9.0,-100.00,West,263,6.0,10.0,64,0.00,,,0.00,0.000000,,2013-01-30 09:21:00,
2013-01-30 02:32:00,0.0,-9.0,-100.00,West,263,6.0,10.0,64,0.00,,,0.00,0.000000,,2013-01-30 09:32:00,
2013-01-30 02:42:00,0.0,-9.0,-100.00,West,263,6.0,10.0,64,0.00,,,0.00,0.000000,,2013-01-30 09:42:00,
2013-01-30 02:51:00,0.0,-9.0,-100.00,West,263,6.0,10.0,64,0.00,,,0.00,0.000000,,2013-01-30 09:51:00,
2013-01-30 03:21:00,1.0,-10.0,-100.00,West,275,8.0,18.0,58,0.00,,,0.00,0.000000,,2013-01-30 10:21:00,
2013-01-30 03:32:00,1.0,-10.0,-100.00,West,275,8.0,18.0,58,0.00,,,0.00,0.000000,,2013-01-30 10:32:00,
2013-01-30 03:42:00,1.0,-10.0,-100.00,West,275,8.0,18.0,58,0.00,,,0.00,0.000000,,2013-01-30 10:42:00,
2013-01-30 03:52:00,1.0,-10.0,-100.00,West,275,8.0,18.0,58,0.00,,,0.00,0.000000,,2013-01-30 10:52:00,
2013-01-30 04:22:00,0.0,-13.0,-100.00,West,281,11.0,23.0,54,0.00,,,0.00,0.000000,,2013-01-30 11:22:00,
2013-01-30 04:33:00,0.0,-13.0,-100.00,West,281,11.0,23.0,54,0.00,,,0.00,0.000000,,2013-01-30 11:33:00,
2013-01-30 04:42:00,0.0,-13.0,-100.00,West,281,11.0,23.0,54,0.00,,,0.00,0.000000,,2013-01-30 11:42:00,
2013-01-30 04:52:00,0.0,-13.0,-100.00,West,281,11.0,23.0,54,0.00,,,0.00,0.000000,,2013-01-30 11:52:00,
2013-01-30 05:22:00,0.0,-13.0,-100.00,West,263,12.0,23.0,52,0.00,,,0.00,0.000000,,2013-01-30 12:22:00,
2013-01-30 05:33:00,0.0,-13.0,-100.00,West,263,12.0,23.0,52,0.00,,,0.00,0.000000,,2013-01-30 12:33:00,
2013-01-30 05:42:00,0.0,-13.0,-100.00,West,263,12.0,23.0,52,0.00,,,0.00,0.000000,,2013-01-30 12:42:00,
2013-01-30 06:23:00,1.0,-12.0,-100.00,WSW,255,20.0,35.0,52,0.00,,,0.00,0.000000,,2013-01-30 13:23:00,
2013-01-30 06:33:00,1.0,-12.0,-100.00,WSW,255,20.0,35.0,52,0.00,,,0.00,0.000000,,2013-01-30 13:33:00,
2013-01-30 06:42:00,1.0,-12.0,-100.00,WSW,255,20.0,35.0,52,0.00,,,0.00,0.000000,,2013-01-30 13:42:00,
2013-01-30 06:52:00,1.0,-12.0,-100.00,WSW,255,20.0,35.0,52,0.00,,,0.00,0.000000,,2013-01-30 13:52:00,
2013-01-30 07:23:00,3.0,-11.0,-100.00,WSW,246,16.0,34.0,52,0.00,,,0.00,0.000000,,2013-01-30 14:23:00,
2013-01-30 07:33:00,3.0,-11.0,-100.00,WSW,246,16.0,34.0,52,0.00,,,0.00,0.000000,,2013-01-30 14:33:00,
2013-01-30 07:42:00,3.0,-11.0,-100.00,WSW,246,16.0,34.0,52,0.00,,,0.00,0.000000,,2013-01-30 14:42:00,
2013-01-30 07:52:00,3.0,-11.0,-100.00,WSW,246,16.0,34.0,52,0.00,,,0.00,0.000000,,2013-01-30 14:52:00,
2013-01-30 08:23:00,5.0,-8.0,-100.00,West,267,9.0,25.0,55,0.00,,,0.00,22.000000,,2013-01-30 15:23:00,
2013-01-30 08:33:00,5.0,-8.0,-100.00,West,267,9.0,25.0,55,0.00,,,0.00,22.000000,,2013-01-30 15:33:00,
2013-01-30 08:43:00,5.0,-8.0,-100.00,West,267,9.0,25.0,55,0.00,,,0.00,22.000000,,2013-01-30 15:43:00,
2013-01-30 08:52:00,5.0,-8.0,-100.00,West,267,9.0,25.0,55,0.00,,,0.00,22.000000,,2013-01-30 15:52:00,
2013-01-30 09:23:00,9.0,-4.0,-100.00,West,274,14.0,27.0,54,0.00,,,0.00,147.000000,,2013-01-30 16:23:00,
2013-01-30 09:32:00,9.0,-4.0,-100.00,West,274,14.0,27.0,54,0.00,,,0.00,147.000000,,2013-01-30 16:32:00,
2013-01-30 09:42:00,9.0,-4.0,-100.00,West,274,14.0,27.0,54,0.00,,,0.00,147.000000,,2013-01-30 16:42:00,
2013-01-30 09:52:00,9.0,-4.0,-100.00,West,274,14.0,27.0,54,0.00,,,0.00,147.000000,,2013-01-30 16:52:00,
2013-01-30 10:23:00,11.0,-2.0,-100.00,West,266,10.0,28.0,55,0.00,,,0.00,333.000000,,2013-01-30 17:23:00,
2013-01-30 10:33:00,11.0,-2.0,-100.00,West,266,10.0,28.0,55,0.00,,,0.00,333.000000,,2013-01-30 17:33:00,
2013-01-30 10:42:00,11.0,-2.0,-100.00,West,266,10.0,28.0,55,0.00,,,0.00,333.000000,,2013-01-30 17:42:00,
2013-01-30 10:53:00,11.0,-2.0,-100.00,West,266,10.0,28.0,55,0.00,,,0.00,333.000000,,2013-01-30 17:53:00,
2013-01-30 11:23:00,14.0,0.0,-100.00,West,272,18.0,32.0,53,0.00,,,0.00,434.000000,,2013-01-30 18:23:00,
2013-01-30 11:33:00,14.0,0.0,-100.00,West,272,18.0,32.0,53,0.00,,,0.00,434.000000,,2013-01-30 18:33:00,
2013-01-30 11:42:00,14.0,0.0,-100.00,West,272,18.0,32.0,53,0.00,,,0.00,434.000000,,2013-01-30 18:42:00,
2013-01-30 11:52:00,14.0,0.0,-100.00,West,272,18.0,32.0,53,0.00,,,0.00,434.000000,,2013-01-30 18:52:00,
2013-01-30 12:22:00,18.0,1.0,-100.00,West,272,11.0,30.0,47,0.00,,,0.00,566.000000,,2013-01-30 19:22:00,
2013-01-30 12:32:00,18.0,1.0,-100.00,West,272,11.0,30.0,47,0.00,,,0.00,566.000000,,2013-01-30 19:32:00,
2013-01-30 12:43:00,18.0,1.0,-100.00,West,272,11.0,30.0,47,0.00,,,0.00,566.000000,,2013-01-30 19:43:00,
2013-01-30 12:52:00,18.0,1.0,-100.00,West,272,11.0,30.0,47,0.00,,,0.00,566.000000,,2013-01-30 19:52:00,
2013-01-30 13:22:00,21.0,4.0,-100.00,WSW,251,11.0,27.0,48,0.00,,,0.00,559.000000,,2013-01-30 20:22:00,
2013-01-30 13:33:00,21.0,4.0,-100.00,WSW,251,11.0,27.0,48,0.00,,,0.00,559.000000,,2013-01-30 20:33:00,
2013-01-30 13:42:00,21.0,4.0,-100.00,WSW,251,11.0,27.0,48,0.00,,,0.00,559.000000,,2013-01-30 20:42:00,
2013-01-30 13:52:00,21.0,4.0,-100.00,WSW,251,11.0,27.0,48,0.00,,,0.00,559.000000,,2013-01-30 20:52:00,
2013-01-30 14:23:00,22.0,6.0,-100.00,West,277,10.0,33.0,49,0.00,,,0.00,439.000000,,2013-01-30 21:23:00,
2013-01-30 14:32:00,22.0,6.0,-100.00,West,277,10.0,33.0,49,0.00,,,0.00,439.000000,,2013-01-30 21:32:00,
2013-01-30 14:42:00,22.0,6.0,-100.00,West,277,10.0,33.0,49,0.00,,,0.00,439.000000,,2013-01-30 21:42:00,
2013-01-30 14:52:00,22.0,6.0,-100.00,West,277,10.0,33.0,49,0.00,,,0.00,439.000000,,2013-01-30 21:52:00,
2013-01-30 15:22:00,22.0,5.0,-100.00,West,260,11.0,24.0,48,0.00,,,0.00,366.000000,,2013-01-30 22:22:00,
2013-01-30 15:32:00,22.0,5.0,-100.00,West,260,11.0,24.0,48,0.00,,,0.00,366.000000,,2013-01-30 22:32:00,
2013-01-30 15:42:00,22.0,5.0,-100.00,West,260,11.0,24.0,48,0.00,,,0.00,366.000000,,2013-01-30 22:42:00,
2013-01-30 15:52:00,22.0,5.0,-100.00,West,260,11.0,24.0,48,0.00,,,0.00,366.000000,,2013-01-30 22:52:00,
2013-01-30 16:22:00,19.0,4.0,-100.00,West,271,14.0,24.0,51,0.00,,,0.00,267.000000,,2013-01-30 23:22:00,
2013-01-30 16:32:00,19.0,4.0,-100.00,West,271,14.0,24.0,51,0.00,,,0.00,267.000000,,2013-01-30 23:32:00,
2013-01-30 16:42:00,19.0,4.0,-100.00,West,271,14.0,24.0,51,0.00,,,0.00,267.000000,,2013-01-30 23:42:00,
2013-01-30 16:52:00,19.0,4.0,-100.00,West,271,14.0,24.0,51,0.00,,,0.00,267.000000,,2013-01-30 23:52:00,
2013-01-30 17:22:00,17.0,4.0,-100.00,WNW,292,13.0,29.0,55,0.00,,,0.00,65.000000,,2013-01-31 00:22:00,
2013-01-30 17:32:00,17.0,4.0,-100.00,WNW,292,13.0,29.0,55,0.00,,,0.00,65.000000,,2013-01-31 00:32:00,
2013-01-30 17:42:00,17.0,4.0,-100.00,WNW,292,13.0,29.0,55,0.00,,,0.00,65.000000,,2013-01-31 00:42:00,
2013-01-30 17:52:00,17.0,4.0,-100.00,WNW,292,13.0,29.0,55,0.00,,,0.00,65.000000,,2013-01-31 00:52:00,
2013-01-30 18:21:00,16.0,5.0,-100.00,West,264,9.0,21.0,62,0.00,,,0.00,6.000000,,2013-01-31 01:21:00,
2013-01-30 18:32:00,16.0,5.0,-100.00,West,264,9.0,21.0,62,0.00,,,0.00,6.000000,,2013-01-31 01:32:00,
2013-01-30 18:42:00,16.0,5.0,-100.00,West,264,9.0,21.0,62,0.00,,,0.00,6.000000,,2013-01-31 01:42:00,
2013-01-30 18:52:00,16.0,5.0,-100.00,West,264,9.0,21.0,62,0.00,,,0.00,6.000000,,2013-01-31 01:52:00,
2013-01-30 19:21:00,15.0,6.0,-100.00,WNW,287,11.0,20.0,67,0.00,,,0.00,0.000000,,2013-01-31 02:21:00,
2013-01-30 19:32:00,15.0,6.0,-100.00,WNW,287,11.0,20.0,67,0.00,,,0.00,0.000000,,2013-01-31 02:32:00,
2013-01-30 19:42:00,15.0,6.0,-100.00,WNW,287,11.0,20.0,67,0.00,,,0.00,0.000000,,2013-01-31 02:42:00,
2013-01-30 19:52:00,15.0,6.0,-100.00,WNW,287,11.0,20.0,67,0.00,,,0.00,0.000000,,2013-01-31 02:52:00,
2013-01-30 20:21:00,15.0,6.0,-100.00,WSW,245,5.0,17.0,67,0.00,,,0.00,0.000000,,2013-01-31 03:21:00,
2013-01-30 20:32:00,15.0,6.0,-100.00,WSW,245,5.0,17.0,67,0.00,,,0.00,0.000000,,2013-01-31 03:32:00,
2013-01-30 20:41:00,15.0,6.0,-100.00,WSW,245,5.0,17.0,67,0.00,,,0.00,0.000000,,2013-01-31 03:41:00,
2013-01-30 20:51:00,15.0,6.0,-100.00,WSW,245,5.0,17.0,67,0.00,,,0.00,0.000000,,2013-01-31 03:51:00,
2013-01-30 21:22:00,15.0,5.0,-100.00,WNW,301,5.0,16.0,64,0.00,,,0.00,0.000000,,2013-01-31 04:22:00,
2013-01-30 21:32:00,15.0,5.0,-100.00,WNW,301,5.0,16.0,64,0.00,,,0.00,0.000000,,2013-01-31 04:32:00,
2013-01-30 21:41:00,15.0,5.0,-100.00,WNW,301,5.0,16.0,64,0.00,,,0.00,0.000000,,2013-01-31 04:41:00,
2013-01-30 21:51:00,15.0,5.0,-100.00,WNW,301,5.0,16.0,64,0.00,,,0.00,0.000000,,2013-01-31 04:51:00,
2013-01-30 22:22:00,15.0,5.0,-100.00,North,9,6.0,9.0,65,0.00,,,0.00,0.000000,,2013-01-31 05:22:00,
2013-01-30 22:32:00,15.0,5.0,-100.00,North,9,6.0,9.0,65,0.00,,,0.00,0.000000,,2013-01-31 05:32:00,
2013-01-30 22:42:00,15.0,5.0,-100.00,North,9,6.0,9.0,65,0.00,,,0.00,0.000000,,2013-01-31 05:42:00,
2013-01-30 22:52:00,15.0,5.0,-100.00,North,9,6.0,9.0,65,0.00,,,0.00,0.000000,,2013-01-31 05:52:00,